Hourly Weather Roundup
Issued by NWS Central Illinois

Home | Current Version | Previous Version | Text Only | Print | Product List | Glossary On
Versions: 1 2 3 4 5 6 7 8 9 10 11 12 13 14 15 16 17 18 19 20 21 22 23 24 25 26 27 28 29 30 31 32 33 34 35 36 37 38 39 40 41 42 43 44 45 46 47 48 49 50
000
NZUS43 KILX 230110
HWRILX

AREA WEATHER ROUNDUP
NATIONAL WEATHER SERVICE, LINCOLN IL
700 PM CST WED FEB 22 2017


CITY           SKY/WX    TMP DP  RH WIND       PRES   REMARKS
BLOOMINGTON    CLEAR     57  54  89 S14       29.67S
CHAMPAIGN      CLOUDY    62  54  74 S14       29.70F
DECATUR        CLOUDY    64  54  69 S14       29.69F
EFFINGHAM      PTCLDY    65  56  72 SE6       29.76R
FLORA          MOCLDY    64  55  72 S9        29.76S
GALESBURG      CLEAR     59  50  73 S9        29.63R
JACKSONVILLE   CLEAR     53  52  94 W6        29.68R FOG
LACON          CLEAR     59  55  85 S14       29.63S
LAWRENCEVILLE  PTCLDY    59  54  83 S9        29.78S
LITCHFIELD     PTCLDY    61  55  82 S9        29.70F
$$


CITY           SKY/WX    TMP DP  RH WIND       PRES   REMARKS
LINCOLN        CLEAR     60  58  92 S9        29.66S
MACOMB         CLEAR     60  51  73 S13       29.67R
MATTOON        PTCLDY    62  56  80 S9        29.72F
MT CARMEL AP   CLOUDY    60  54  78 S7        29.78S
OLNEY-NOBLE AP CLOUDY    61  59  94 S8        29.77S
PARIS          CLOUDY    59  55  85 S12       29.74F
PEORIA         CLEAR     58  54  86 S15       29.66R
PONTIAC        CLEAR     60  56  88 S10       29.65S
RANTOUL        CLEAR     62  56  80 S13       29.69S
SPRINGFIELD    CLEAR     60  55  83 S10       29.68S
TAYLORVILLE    CLOUDY    62  55  76 S14       29.69F
$$

...REGIONAL REPORTS...


CITY           SKY/WX    TMP DP  RH WIND       PRES   REMARKS
CHICAGO O`HARE CLEAR     64  54  69 S13       29.60S
KANKAKEE       CLEAR     58  53  84 S8        29.66F
MOLINE         CLEAR     64  50  60 S14       29.59R
MOUNT STERLING PTCLDY    55  53  91 S7        29.67S
MOUNT VERNON   PTCLDY    64  54  69 S7        29.76S
PITTSFIELD     CLEAR     58  55  91 SW3       29.69S
QUINCY         CLEAR     59  54  83 S9        29.67R
ROCKFORD       CLEAR     60  50  69 S10       29.61R
$$


CITY           SKY/WX    TMP DP  RH WIND       PRES   REMARKS
BURLINGTON     CLEAR     60  53  77 S17       29.63R
CEDAR RAPIDS   CLEAR     52  42  69 W9        29.61R
DES MOINES     PTCLDY    64  43  46 NW8       29.67R
KIRKSVILLE     CLEAR     64  45  49 CALM      29.66R
OTTUMWA        CLEAR     59  36  42 NW10      29.65R
ST LOUIS       PTCLDY    69  55  60 S8        29.69F
$$


CITY           SKY/WX    TMP DP  RH WIND       PRES   REMARKS
TERRE HAUTE    CLOUDY    60  52  74 S8        29.76S
EVANSVILLE     CLOUDY    63  54  72 CALM      29.80S
INDIANAPOLIS   MOCLDY    60  54  80 S7        29.77S
LAFAYETTE      CLEAR     62  55  77 S9        29.70F
MADISON        PTCLDY    61  52  72 S6        29.54S
MILWAUKEE      PTCLDY    62  49  62 SW12      29.57R
$$





USA.gov is the U.S. government's official web portal to all federal, state and local government web resources and services.